Location: Newark
(5.5500°N, 0.2500°W)
Time: 18:45:38
(UTC+00:00)

OTV 5 (USA 277) - Visible Passes

Search period start: 21 October 2019 00:00
Search period end: 31 October 2019 00:00
Orbit: 310 x 324 km, 54.5° (Epoch: 17 October)

Date Brightness Start Highest point End Pass type
(mag) Time Alt. Az. Time Alt. Az. Time Alt. Az.
21 Oct ? 18:23:19 10° SSE 18:24:32 12° ESE 18:24:42 12° ESE visible
22 Oct ? 18:36:19 10° SSW 18:38:59 63° ESE 18:39:54 35° NE visible
23 Oct ? 18:51:22 10° WSW 18:53:28 20° WNW 18:55:06 13° NNW visible
25 Oct ? 04:49:16 10° N 04:51:37 26° ENE 04:53:56 10° ESE visible
26 Oct ? 05:04:15 17° NW 05:06:05 46° WSW 05:08:41 10° SSE visible
26 Oct ? 18:02:23 10° WNW 18:02:50 10° NW 18:03:16 10° NW visible
28 Oct ? 04:03:34 10° SE 04:03:34 10° SE 04:03:37 10° SE visible
